Location: Makanda
(37.6176°N, 89.2090°W)
Time: 01:13:17
(UTC+00:00)

SAR-Lupe-2 - Pass Details

Date: 23 September 2019
Orbit: 481 x 485 km, 98.2° (Epoch: 07 October)

Event Time Altitude Azimuth Distance (km) Brightness Sun altitude
Rises 01:24:52 0° 7° (N) 2,553 7.3 -18.6°
Reaches altitude 10° 01:26:58 10° 3° (N) 1,668 6.4 -19.0°
Maximum altitude 01:30:28 55° 285° (WNW) 588 4.3 -19.7°
Drops below altitude 10° 01:33:56 10° 208° (SSW) 1,653 6.4 -20.3°
Sets 01:36:00 0° 203° (SSW) 2,527 7.3 -20.7°
